| time (UTC) | temp F | wind direction | speed MPH | gust MPH | rain 1hr in | rain 24hr in | rain mn in | humidity % | barometer mb |
| 20260903213225 | 80 | 0 | 1.0 | 0.0 | 0.00 | 0.01 | 0.01 | 77 | 974.1 |
| 20260903212545 | 80 | 359 | 0.0 | 0.0 | 0.00 | 0.01 | 0.01 | 78 | 974.0 |
| 20260903211908 | 81 | 172 | 6.0 | 6.0 | 0.00 | 0.01 | 0.01 | 76 | 974.2 |
| 20260903211227 | 81 | 163 | 6.0 | 6.0 | 0.00 | 0.01 | 0.01 | 76 | 974.2 |
| 20260903210550 | 80 | 173 | 2.0 | 0.0 | 0.00 | 0.01 | 0.01 | 78 | 974.3 |
| 20260903205909 | 80 | 176 | 3.0 | 3.0 | 0.00 | 0.01 | 0.01 | 79 | 974.2 |
| 20260903205232 | 80 | 124 | 0.0 | 0.0 | 0.00 | 0.01 | 0.01 | 80 | 974.2 |
| 20260903204552 | 80 | 128 | 1.0 | 0.0 | 0.00 | 0.01 | 0.01 | 80 | 974.3 |
| 20260903203915 | 79 | 131 | 0.0 | 0.0 | 0.00 | 0.01 | 0.01 | 82 | 974.6 |
| 20260903203234 | 78 | 98 | 0.0 | 0.0 | 0.00 | 0.01 | 0.01 | 83 | 974.8 |
| 20260903202557 | 78 | 128 | 3.0 | 7.0 | 0.00 | 0.01 | 0.01 | 83 | 975.1 |
| 20260903201916 | 78 | 177 | 5.0 | 0.0 | 0.00 | 0.01 | 0.01 | 85 | 975.5 |
| 20260903201239 | 78 | 113 | 4.0 | 0.0 | 0.00 | 0.01 | 0.01 | 86 | 975.6 |
| 20260903200702 | 77 | 118 | 6.0 | 7.0 | 0.00 | 0.01 | 0.01 | 87 | 975.7 |
| 20260903200559 | 77 | 118 | 6.0 | 7.0 | 0.00 | 0.01 | 0.01 | 87 | 975.7 |
| 20260903195922 | 77 | 111 | 7.0 | 6.0 | 0.00 | 0.01 | 0.01 | 88 | 976.0 |
| 20260903194604 | 76 | 110 | 7.0 | 5.0 | 0.00 | 0.01 | 0.01 | 90 | 976.5 |
| 20260903191929 | 76 | 73 | 4.0 | 3.0 | 0.00 | 0.01 | 0.01 | 90 | 976.8 |
| 20260903190612 | 76 | 66 | 0.0 | 0.0 | 0.00 | 0.01 | 0.01 | 89 | 977.3 |
| 20260903185931 | 76 | 66 | 0.0 | 0.0 | 0.00 | 0.01 | 0.01 | 89 | 977.4 |
| 20260903185254 | 76 | 66 | 0.0 | 0.0 | 0.00 | 0.01 | 0.01 | 88 | 977.4 |
| 20260903184614 | 76 | 79 | 4.0 | 4.0 | 0.00 | 0.01 | 0.01 | 88 | 977.2 |
| 20260903183937 | 76 | 87 | 5.0 | 3.0 | 0.00 | 0.01 | 0.01 | 89 | 977.1 |
| 20260903183256 | 76 | 65 | 4.0 | 4.0 | 0.00 | 0.01 | 0.01 | 89 | 977.0 |
| 20260903182619 | 76 | 35 | 5.0 | 4.0 | 0.00 | 0.01 | 0.01 | 88 | 977.2 |
| 20260903181938 | 76 | 359 | 5.0 | 8.0 | 0.00 | 0.01 | 0.01 | 89 | 977.4 |
| 20260903181301 | 75 | 3 | 6.0 | 7.0 | 0.00 | 0.01 | 0.01 | 90 | 977.3 |
| 20260903180621 | 75 | 342 | 7.0 | 4.0 | 0.00 | 0.01 | 0.01 | 91 | 977.5 |
| 20260903175306 | 76 | 342 | 6.0 | 8.0 | 0.00 | 0.01 | 0.01 | 91 | 977.4 |
| 20260903174627 | 76 | 13 | 6.0 | 5.0 | 0.00 | 0.01 | 0.01 | 92 | 977.1 |
| 20260903174021 | 76 | 4 | 9.0 | 7.0 | 0.00 | 0.01 | 0.01 | 92 | 977.2 |
| 20260903173946 | 76 | 4 | 9.0 | 7.0 | 0.00 | 0.01 | 0.01 | 92 | 977.2 |
| 20260903173347 | 77 | 24 | 11.0 | 12.0 | 0.00 | 0.01 | 0.01 | 94 | 976.8 |
| 20260903173309 | 77 | 24 | 11.0 | 12.0 | 0.00 | 0.01 | 0.01 | 94 | 976.8 |
| 20260903172629 | 76 | 359 | 13.0 | 9.0 | 0.00 | 0.01 | 0.01 | 97 | 976.7 |
| 20260903172039 | 76 | 339 | 11.0 | 8.0 | 0.00 | 0.01 | 0.01 | 98 | 976.6 |
| 20260903171952 | 76 | 339 | 11.0 | 8.0 | 0.00 | 0.01 | 0.01 | 98 | 976.6 |
| 20260903171311 | 76 | 359 | 14.0 | 19.0 | 0.00 | 0.01 | 0.01 | 97 | 976.5 |
| 20260903170716 | 78 | 319 | 8.0 | 6.0 | 0.00 | 0.01 | 0.01 | 95 | 976.6 |
| 20260903170634 | 78 | 319 | 8.0 | 6.0 | 0.00 | 0.01 | 0.01 | 95 | 976.6 |
| 20260903165954 | 80 | 340 | 7.0 | 5.0 | 0.00 | 0.01 | 0.01 | 97 | 976.6 |
| 20260903165317 | 80 | 240 | 4.0 | 0.0 | 0.00 | 0.01 | 0.01 | 98 | 976.1 |
| 20260903164636 | 79 | 179 | 0.0 | 3.0 | 0.00 | 0.01 | 0.01 | 98 | 975.9 |
| 20260903164001 | 79 | 169 | 2.0 | 0.0 | 0.00 | 0.01 | 0.01 | 98 | 975.8 |
| 20260903163319 | 79 | 207 | 1.0 | 5.0 | 0.00 | 0.01 | 0.01 | 98 | 975.9 |
| 20260903162804 | 79 | 188 | 4.0 | 3.0 | 0.00 | 0.01 | 0.01 | 98 | 975.6 |
| 20260903162642 | 79 | 188 | 4.0 | 3.0 | 0.00 | 0.01 | 0.01 | 98 | 975.6 |
| 20260903162001 | 79 | 150 | 0.0 | 0.0 | 0.00 | 0.01 | 0.01 | 98 | 975.4 |
| 20260903161324 | 79 | 169 | 4.0 | 4.0 | 0.00 | 0.01 | 0.01 | 97 | 974.9 |
| 20260903160644 | 79 | 160 | 4.0 | 0.0 | 0.00 | 0.01 | 0.01 | 97 | 974.9 |
| 20260903160007 | 79 | 165 | 5.0 | 5.0 | 0.00 | 0.01 | 0.01 | 96 | 974.9 |
| 20260903155326 | 79 | 158 | 6.0 | 5.0 | 0.00 | 0.01 | 0.01 | 96 | 974.8 |
| 20260903154649 | 79 | 176 | 4.0 | 5.0 | 0.00 | 0.01 | 0.01 | 97 | 974.9 |
| 20260903154009 | 79 | 136 | 0.0 | 5.0 | 0.00 | 0.01 | 0.01 | 97 | 974.9 |
| 20260903153332 | 79 | 218 | 6.0 | 5.0 | 0.00 | 0.01 | 0.01 | 96 | 974.9 |
| 20260903152652 | 78 | 179 | 6.0 | 4.0 | 0.00 | 0.01 | 0.01 | 97 | 974.7 |
| 20260903152015 | 78 | 153 | 6.0 | 7.0 | 0.00 | 0.01 | 0.01 | 98 | 974.9 |
| 20260903151417 | 78 | 108 | 6.0 | 5.0 | 0.00 | 0.01 | 0.01 | 98 | 974.9 |
| 20260903151333 | 78 | 108 | 6.0 | 5.0 | 0.00 | 0.01 | 0.01 | 98 | 974.9 |
| 20260903150739 | 78 | 138 | 5.0 | 6.0 | 0.00 | 0.01 | 0.01 | 100 | 974.9 |
| 20260903150657 | 78 | 138 | 5.0 | 6.0 | 0.00 | 0.01 | 0.01 | 100 | 974.9 |
| 20260903150017 | 78 | 111 | 6.0 | 6.0 | 0.00 | 0.01 | 0.01 | 100 | 974.8 |
| 20260903145340 | 77 | 148 | 3.0 | 3.0 | 0.00 | 0.01 | 0.01 | 100 | 974.9 |
| 20260903144907 | 77 | 153 | 6.0 | 6.0 | 0.00 | 0.01 | 0.01 | 100 | 975.0 |
| 20260903144659 | 77 | 153 | 6.0 | 6.0 | 0.00 | 0.01 | 0.01 | 100 | 975.0 |
| 20260903144023 | 76 | 100 | 6.0 | 3.0 | 0.00 | 0.01 | 0.01 | 100 | 975.2 |
| 20260903143342 | 76 | 121 | 3.0 | 0.0 | 0.00 | 0.01 | 0.01 | 100 | 975.4 |
| 20260903142025 | 74 | 148 | 6.0 | 5.0 | 0.00 | 0.01 | 0.01 | 100 | 975.7 |
| 20260903141347 | 74 | 83 | 2.0 | 4.0 | 0.00 | 0.01 | 0.01 | 100 | 975.9 |
| 20260903140029 | 73 | 359 | 0.0 | 0.0 | 0.00 | 0.01 | 0.01 | 100 | 975.9 |
| 20260903133429 | 72 | 359 | 0.0 | 0.0 | 0.00 | 0.01 | 0.01 | 100 | 976.0 |
| 20260903133354 | 72 | 359 | 0.0 | 0.0 | 0.00 | 0.01 | 0.01 | 100 | 976.0 |
| 20260903120125 | 69 | 359 | 0.0 | 0.0 | 0.00 | 0.01 | 0.01 | 100 | 976.9 |
| 20260903120053 | 69 | 359 | 0.0 | 0.0 | 0.00 | 0.01 | 0.01 | 100 | 976.9 |
| 20260903115412 | 69 | 359 | 0.0 | 0.0 | 0.00 | 0.01 | 0.01 | 100 | 976.8 |
| 20260903114735 | 69 | 359 | 0.0 | 0.0 | 0.00 | 0.01 | 0.01 | 100 | 976.6 |
| 20260903114126 | 68 | 359 | 0.0 | 0.0 | 0.00 | 0.01 | 0.01 | 100 | 976.6 |
| 20260903114055 | 68 | 359 | 0.0 | 0.0 | 0.00 | 0.01 | 0.01 | 100 | 976.6 |
| 20260903112100 | 67 | 359 | 0.0 | 0.0 | 0.00 | 0.01 | 0.01 | 100 | 976.7 |
| 20260903105425 | 66 | 359 | 0.0 | 0.0 | 0.01 | 0.01 | 0.01 | 100 | 976.5 |
| 20260903104745 | 66 | 359 | 0.0 | 0.0 | 0.01 | 0.01 | 0.01 | 100 | 976.5 |
| 20260903104108 | 66 | 359 | 0.0 | 0.0 | 0.01 | 0.01 | 0.01 | 100 | 976.5 |
| 20260903103427 | 66 | 359 | 0.0 | 0.0 | 0.01 | 0.01 | 0.01 | 100 | 976.5 |
| 20260903102143 | 66 | 359 | 0.0 | 0.0 | 0.01 | 0.01 | 0.01 | 100 | 976.5 |
| 20260903102110 | 66 | 359 | 0.0 | 0.0 | 0.01 | 0.01 | 0.01 | 100 | 976.5 |
| 20260903101433 | 66 | 359 | 0.0 | 0.0 | 0.01 | 0.01 | 0.01 | 100 | 976.5 |
| 20260903100752 | 66 | 359 | 0.0 | 0.0 | 0.01 | 0.01 | 0.01 | 100 | 976.7 |
| 20260903100115 | 66 | 359 | 0.0 | 0.0 | 0.01 | 0.01 | 0.01 | 100 | 976.5 |
| 20260903095435 | 66 | 359 | 0.0 | 0.0 | 0.00 | 0.01 | 0.01 | 100 | 976.6 |
| 20260903093440 | 66 | 359 | 0.0 | 0.0 | 0.00 | 0.01 | 0.00 | 100 | 976.7 |
| 20260903092800 | 66 | 359 | 0.0 | 0.0 | 0.00 | 0.01 | 0.00 | 100 | 976.7 |
| 20260903092123 | 66 | 359 | 0.0 | 0.0 | 0.00 | 0.01 | 0.00 | 100 | 976.6 |
| 20260903091443 | 66 | 359 | 0.0 | 0.0 | 0.00 | 0.01 | 0.00 | 100 | 976.5 |
| 20260903090807 | 67 | 359 | 0.0 | 0.0 | 0.00 | 0.01 | 0.00 | 100 | 976.5 |
| 20260903090125 | 67 | 359 | 0.0 | 0.0 | 0.00 | 0.01 | 0.00 | 100 | 976.6 |
| 20260903085448 | 67 | 359 | 0.0 | 0.0 | 0.00 | 0.01 | 0.00 | 100 | 976.5 |
| 20260903084807 | 67 | 359 | 0.0 | 0.0 | 0.00 | 0.01 | 0.00 | 100 | 976.5 |
| 20260903084130 | 67 | 359 | 0.0 | 0.0 | 0.00 | 0.01 | 0.00 | 100 | 976.6 |
| 20260903083450 | 67 | 359 | 0.0 | 0.0 | 0.00 | 0.01 | 0.00 | 100 | 976.5 |
| 20260903082813 | 67 | 359 | 0.0 | 0.0 | 0.00 | 0.01 | 0.00 | 100 | 976.5 |
| 20260903080815 | 67 | 359 | 0.0 | 0.0 | 0.00 | 0.01 | 0.00 | 100 | 976.5 |
| 20260903075532 | 67 | 359 | 0.0 | 0.0 | 0.00 | 0.01 | 0.00 | 100 | 976.5 |
| 20260903075457 | 67 | 359 | 0.0 | 0.0 | 0.00 | 0.01 | 0.00 | 100 | 976.5 |
| 20260903074820 | 67 | 359 | 0.0 | 0.0 | 0.00 | 0.01 | 0.00 | 100 | 976.6 |
| 20260903074140 | 67 | 359 | 0.0 | 0.0 | 0.00 | 0.01 | 0.00 | 100 | 976.5 |
| 20260903073503 | 68 | 359 | 0.0 | 0.0 | 0.00 | 0.01 | 0.00 | 100 | 976.4 |
| 20260903072822 | 68 | 359 | 0.0 | 0.0 | 0.00 | 0.01 | 0.00 | 100 | 976.4 |
| 20260903072145 | 68 | 359 | 0.0 | 0.0 | 0.00 | 0.01 | 0.00 | 100 | 976.4 |
| 20260903070828 | 68 | 359 | 0.0 | 0.0 | 0.00 | 0.01 | 0.00 | 100 | 976.4 |
| 20260903070147 | 68 | 359 | 0.0 | 0.0 | 0.00 | 0.01 | 0.00 | 100 | 976.4 |
| 20260903065510 | 68 | 359 | 0.0 | 0.0 | 0.00 | 0.01 | 0.00 | 100 | 976.3 |
| 20260903064918 | 68 | 359 | 0.0 | 0.0 | 0.00 | 0.01 | 0.00 | 100 | 976.3 |
| 20260903064830 | 68 | 359 | 0.0 | 0.0 | 0.00 | 0.01 | 0.00 | 100 | 976.3 |
| 20260903063512 | 69 | 359 | 0.0 | 0.0 | 0.00 | 0.01 | 0.00 | 100 | 976.2 |
| 20260903061617 | 69 | 359 | 0.0 | 0.0 | 0.00 | 0.01 | 0.00 | 100 | 976.3 |
| 20260903061517 | 69 | 359 | 0.0 | 0.0 | 0.00 | 0.01 | 0.00 | 100 | 976.3 |
| 20260903060916 | 69 | 359 | 0.0 | 0.0 | 0.00 | 0.01 | 0.00 | 100 | 976.4 |
| 20260903060838 | 69 | 359 | 0.0 | 0.0 | 0.00 | 0.01 | 0.00 | 100 | 976.4 |
| 20260903053526 | 70 | 359 | 0.0 | 0.0 | 0.00 | 0.01 | 0.00 | 100 | 976.2 |
| 20260903052844 | 70 | 359 | 0.0 | 0.0 | 0.00 | 0.01 | 0.00 | 100 | 976.1 |
| 20260903052208 | 70 | 359 | 0.0 | 0.0 | 0.00 | 0.01 | 0.00 | 100 | 976.1 |
| 20260903051528 | 69 | 359 | 0.0 | 0.0 | 0.00 | 0.01 | 0.00 | 100 | 976.0 |
| 20260903050849 | 69 | 359 | 0.0 | 0.0 | 0.00 | 0.01 | 0.00 | 100 | 976.0 |
| 20260903050241 | 69 | 359 | 0.0 | 0.0 | 0.00 | 0.01 | 0.00 | 100 | 975.9 |
| 20260903050209 | 69 | 359 | 0.0 | 0.0 | 0.00 | 0.01 | 0.00 | 100 | 975.9 |
| 20260903044215 | 69 | 359 | 0.0 | 0.0 | 0.00 | 0.01 | 0.00 | 100 | 975.9 |
| 20260903042856 | 70 | 359 | 0.0 | 0.0 | 0.00 | 0.01 | 0.00 | 100 | 975.8 |
| 20260903042216 | 70 | 359 | 0.0 | 0.0 | 0.00 | 0.01 | 0.00 | 100 | 975.8 |
| 20260903040939 | 70 | 359 | 0.0 | 0.0 | 0.00 | 0.01 | 0.00 | 100 | 975.8 |
| 20260903040858 | 70 | 359 | 0.0 | 0.0 | 0.00 | 0.01 | 0.00 | 100 | 975.8 |
| 20260903035620 | 70 | 359 | 0.0 | 0.0 | 0.00 | 0.00 | 0.01 | 100 | 975.7 |
| 20260903035542 | 70 | 359 | 0.0 | 0.0 | 0.00 | 0.00 | 0.01 | 100 | 975.7 |
| 20260903034905 | 70 | 359 | 0.0 | 0.0 | 0.00 | 0.00 | 0.01 | 100 | 975.7 |
| 20260903034223 | 70 | 359 | 0.0 | 0.0 | 0.00 | 0.00 | 0.01 | 100 | 975.7 |
| 20260903033547 | 71 | 359 | 0.0 | 0.0 | 0.00 | 0.00 | 0.01 | 100 | 975.8 |
| 20260903032905 | 71 | 359 | 0.0 | 0.0 | 0.00 | 0.00 | 0.01 | 100 | 975.7 |
| 20260903032229 | 71 | 359 | 0.0 | 0.0 | 0.00 | 0.00 | 0.01 | 100 | 975.7 |
| 20260903025641 | 71 | 359 | 0.0 | 0.0 | 0.00 | 0.00 | 0.01 | 100 | 975.7 |
| 20260903025554 | 71 | 359 | 0.0 | 0.0 | 0.00 | 0.00 | 0.01 | 100 | 975.7 |
| 20260903024913 | 72 | 359 | 0.0 | 0.0 | 0.00 | 0.00 | 0.01 | 100 | 975.7 |
| 20260903024236 | 72 | 359 | 0.0 | 0.0 | 0.00 | 0.00 | 0.01 | 100 | 975.7 |
| 20260903022918 | 72 | 359 | 0.0 | 0.0 | 0.00 | 0.00 | 0.01 | 100 | 975.6 |
| 20260903022335 | 73 | 359 | 0.0 | 0.0 | 0.00 | 0.00 | 0.01 | 100 | 975.7 |
| 20260903022238 | 73 | 359 | 0.0 | 0.0 | 0.00 | 0.00 | 0.01 | 100 | 975.7 |
| 20260903021652 | 73 | 359 | 0.0 | 0.0 | 0.00 | 0.00 | 0.01 | 100 | 975.7 |
| 20260903021601 | 73 | 359 | 0.0 | 0.0 | 0.00 | 0.00 | 0.01 | 100 | 975.7 |
| 20260903020920 | 73 | 359 | 0.0 | 0.0 | 0.00 | 0.00 | 0.01 | 100 | 975.6 |
| 20260903020344 | 73 | 359 | 0.0 | 0.0 | 0.00 | 0.00 | 0.01 | 100 | 975.5 |
| 20260903020243 | 73 | 359 | 0.0 | 0.0 | 0.00 | 0.00 | 0.01 | 100 | 975.5 |
| 20260903014925 | 74 | 359 | 0.0 | 0.0 | 0.00 | 0.00 | 0.01 | 100 | 975.4 |
| 20260903014245 | 74 | 359 | 0.0 | 0.0 | 0.00 | 0.00 | 0.01 | 100 | 975.4 |
| 20260903013608 | 74 | 359 | 0.0 | 0.0 | 0.00 | 0.00 | 0.01 | 100 | 975.2 |
| 20260903012927 | 74 | 359 | 0.0 | 0.0 | 0.00 | 0.00 | 0.01 | 100 | 975.2 |
| 20260903012353 | 75 | 359 | 0.0 | 0.0 | 0.00 | 0.00 | 0.01 | 100 | 975.2 |
| 20260903012250 | 75 | 359 | 0.0 | 0.0 | 0.00 | 0.00 | 0.01 | 100 | 975.2 |
| 20260903011727 | 75 | 359 | 0.0 | 0.0 | 0.00 | 0.00 | 0.01 | 99 | 975.1 |
| 20260903011609 | 75 | 359 | 0.0 | 0.0 | 0.00 | 0.00 | 0.01 | 99 | 975.1 |
| 20260903010932 | 75 | 359 | 0.0 | 0.0 | 0.00 | 0.00 | 0.01 | 98 | 974.9 |
| 20260903010408 | 76 | 359 | 0.0 | 0.0 | 0.00 | 0.00 | 0.01 | 97 | 975.0 |
| 20260903010251 | 76 | 359 | 0.0 | 0.0 | 0.00 | 0.00 | 0.01 | 97 | 975.0 |
| 20260903004934 | 76 | 359 | 0.0 | 0.0 | 0.00 | 0.00 | 0.01 | 95 | 974.7 |
| 20260903004256 | 77 | 359 | 0.0 | 0.0 | 0.00 | 0.00 | 0.01 | 94 | 974.7 |
| 20260903003616 | 78 | 359 | 0.0 | 0.0 | 0.00 | 0.00 | 0.01 | 93 | 974.5 |
| 20260903001621 | 79 | 359 | 0.0 | 0.0 | 0.00 | 0.00 | 0.01 | 90 | 974.5 |
| 20260903001025 | 79 | 359 | 0.0 | 0.0 | 0.00 | 0.00 | 0.01 | 90 | 974.4 |
| 20260903000940 | 79 | 359 | 0.0 | 0.0 | 0.00 | 0.00 | 0.01 | 90 | 974.4 |
| 20260903000303 | 80 | 359 | 0.0 | 0.0 | 0.00 | 0.00 | 0.01 | 90 | 974.4 |
| 20260902235724 | 80 | 359 | 0.0 | 0.0 | 0.00 | 0.00 | 0.01 | 89 | 974.5 |
| 20260902235622 | 80 | 359 | 0.0 | 0.0 | 0.00 | 0.00 | 0.01 | 89 | 974.5 |
| 20260902234945 | 80 | 359 | 0.0 | 0.0 | 0.00 | 0.00 | 0.01 | 89 | 974.4 |
| 20260902234405 | 80 | 359 | 0.0 | 0.0 | 0.00 | 0.00 | 0.01 | 88 | 974.3 |
| 20260902234304 | 80 | 359 | 0.0 | 0.0 | 0.00 | 0.00 | 0.01 | 88 | 974.3 |
| 20260902233627 | 80 | 359 | 0.0 | 0.0 | 0.00 | 0.00 | 0.01 | 88 | 974.3 |
| 20260902232947 | 80 | 359 | 0.0 | 0.0 | 0.00 | 0.00 | 0.01 | 87 | 974.3 |
| 20260902232309 | 80 | 359 | 0.0 | 0.0 | 0.00 | 0.00 | 0.01 | 87 | 974.4 |
| 20260902231629 | 80 | 359 | 0.0 | 0.0 | 0.00 | 0.00 | 0.01 | 86 | 974.3 |
| 20260902230952 | 80 | 359 | 0.0 | 0.0 | 0.00 | 0.00 | 0.01 | 85 | 974.2 |
| 20260902230311 | 81 | 359 | 0.0 | 0.0 | 0.00 | 0.00 | 0.01 | 85 | 974.1 |
| 20260902225634 | 81 | 359 | 0.0 | 0.0 | 0.00 | 0.00 | 0.01 | 85 | 974.2 |
| 20260902224953 | 81 | 359 | 0.0 | 0.0 | 0.00 | 0.00 | 0.01 | 85 | 974.1 |
| 20260902224316 | 81 | 359 | 0.0 | 0.0 | 0.00 | 0.00 | 0.01 | 84 | 974.2 |
| 20260902223635 | 81 | 359 | 0.0 | 0.0 | 0.00 | 0.00 | 0.01 | 83 | 974.3 |
| 20260902222958 | 81 | 359 | 0.0 | 0.0 | 0.00 | 0.00 | 0.01 | 83 | 974.3 |
| 20260902221640 | 81 | 359 | 0.0 | 0.0 | 0.00 | 0.00 | 0.01 | 82 | 974.3 |
| 20260902221000 | 81 | 359 | 0.0 | 0.0 | 0.00 | 0.00 | 0.01 | 82 | 974.0 |
| 20260902220323 | 81 | 359 | 0.0 | 0.0 | 0.00 | 0.00 | 0.01 | 81 | 973.9 |
| 20260902215642 | 82 | 359 | 0.0 | 0.0 | 0.00 | 0.00 | 0.01 | 79 | 973.8 |
| 20260902215005 | 82 | 359 | 0.0 | 0.0 | 0.00 | 0.00 | 0.01 | 78 | 973.9 |
| 20260902214427 | 82 | 359 | 0.0 | 0.0 | 0.00 | 0.00 | 0.01 | 78 | 973.9 |
| 20260902214324 | 82 | 359 | 0.0 | 0.0 | 0.00 | 0.00 | 0.01 | 78 | 973.9 |
| 20260902213647 | 82 | 359 | 0.0 | 0.0 | 0.00 | 0.00 | 0.01 | 79 | 974.0 |